www.pogodaiklimat.ru

Погода и климат >> Архив погоды >> Иран >> Сараван


ПОГОДА в Сараване

  • Прогноз погоды в Сараване
  • Монитор погоды в Сараване

АРХИВ ПОГОДЫ в Сараване

Время (UTC), дата Ветер
(напр.,м/с)
 
Видим.   Явления Облачность Т
(С)
Тd
(С)
f
(%)
Тe
(С)
Тes
(С)
Комфортность P
(гПа)
Po
(гПа)
Тmin
(С)
Tmax
(С)
R
(мм)
R24
(мм)
S
(см)
06 13.02 СВ 3 8000 м мгла 6/5 900 м
[Frnb Ac As]
+11.9 +7.6 75 +10 +14 1021.8 888.4 0.5
09 13.02 СВ 5 8000 м мгла 4/4 1200 м
[Cu med, cong]
+13.7 +6.2 60 +12 +16 1020.0 887.1
12 13.02 В 5 12 км 3/3 1050 м
[Cu med, cong]
+13.2 +3.9 53 +11 +12 1020.2 886.6
15 13.02 СВ 7 12 км 1/1 1050 м
[Sc diur, vesp]
+11.1 +1.8 53 +8 +8 1022.3 887.7 +13.8
18 13.02 СВ 4 10 км ясно +9.5 +0.5 53 +7 +7 1023.2 888.4
21 13.02 СВ 4 10 км ясно +7.7 +0.1 59 +5 +5 1022.4 887.7
00 14.02 СВ 4 10 км ясно +5.9 -0.2 65 +2 +2 1022.8 887.5
03 14.02 СВ 3 15 км ясно +5.3 -0.4 67 +2 +3 1024.6 888.5 +5.0
06 14.02 СВ 5 15 км ясно +9.7 -1.1 47 +7 +12 1025.4 889.8
09 14.02 СВ 3 15 км ясно +12.8 -1.8 36 +12 +22 1021.9 887.0
12 14.02 С 3 15 км ясно +14.8 -1.1 34 +14 +16 1020.6 885.9
15 14.02 СВ 5 15 км ясно +11.4 -1.4 41 +9 +9 1022.3 886.5 +15.1
18 14.02 СВ 4 15 км ясно +9.8 -2.6 42 +8 +8 1022.6 887.4
21 14.02 СВ 3 15 км ясно +8.3 -3.2 44 +6 +6 1021.9 887.1
00 15.02 СВ 4 15 км ясно +6.7 -2.8 51 +4 +4 1021.8 887.1
03 15.02 С 2 15 км ясно +3.4 -0.1 78 +1 +1 1025.1 888.6 +3.3
06 15.02 СВ 5 15 км ясно +11.1 -1.6 41 +9 +14 1024.7 889.5
09 15.02 С 2 15 км 3/0
[Ci sp]
+15.5 -3.6 27 +16 +27 1022.1 887.9
12 15.02 штиль 0 15 км 5/0
[Ci sp]
+18.7 -5.6 19 +19 +21 1019.7 886.1
15 15.02 В 2 15 км 3/0
[Ci sp]
+15.2 -3.0 28 +15 +15 1022.7 887.3 +19.3
18 15.02 штиль 0 12 км ясно +10.8 -1.7 42 +11 +11 1022.8 888.1
21 15.02 штиль 0 12 км ясно +9.2 +0.7 55 +9 +9 1020.9 887.1
00 16.02 штиль 0 12 км ясно +7.0 +0.6 64 +6 +6 1019.3 885.9
03 16.02 З 2 12 км 3/0
[Cc]
+5.9 -0.2 65 +4 +4 1021.6 886.9 +5.6
06 16.02 Ю 2 15 км 5/0
[Ac As Cs]
+15.1 -2.0 31 +15 +24 1020.8 887.2
09 16.02 ЮЗ 4 15 км 5/0
[Ac As Cs]
+22.1 +2.6 28 +22 +29 комфорт 1016.7 884.9
12 16.02 З 7 12 км 6/3 1200 м
[Cu med, cong Ac As Cs]
+22.8 +2.6 27 +22 +23 комфорт 1014.4 882.6
15 16.02 ЮЗ 3 12 км 3/3 1200 м
[Cu med, cong]
+19.6 +1.4 30 +20 +20 1016.5 883.5 +24.2
18 16.02 ЮЗ 7 12 км 5/3 1200 м
[Sc diur, vesp Ac As]
+17.4 +0.7 32 +16 +16 1016.6 885.0
21 16.02 З 5 10 км 6/3 1200 м
[Sc diur, vesp Ac As]
+16.1 +0.8 35 +15 +15 1014.3 884.2
00 17.02 З 4 10 км 6/3 1200 м
[Sc diur, vesp Ac As]
+15.6 +3.5 44 +15 +15 1014.7 884.7
03 17.02 штиль 0 12 км 6/3 1200 м
[Sc Ac As]
+13.1 +7.3 68 +13 +13 1015.5 884.3 +12.3
06 17.02 штиль 0 12 км 4/1 1050 м
[Cb calv Ac As]
+17.6 +7.3 51 +18 +27 1015.6 884.9
09 17.02 З 4 12 км 6/1 1050 м
[Cb calv Ac As]
+19.6 +7.4 45 +20 +25 1012.2 882.1
12 17.02 З 8 8000 м пыльный позёмок 5/3 1200 м
[Cu med, cong Ac As]
+20.4 +6.6 41 +21 +21 комфорт 1009.7 879.9
15 17.02 З 3 12 км 4/0
[Ac As]
+17.9 +7.5 51 +18 +18 1011.4 880.4 +21.0
18 17.02 ЮЗ 2 12 км 1/0
[Ac As]
+15.4 +8.4 63 +15 +15 1011.7 881.1
21 17.02 штиль 0 12 км ясно +12.9 +8.2 73 +13 +13 1010.3 879.8
00 18.02 ЮЗ 2 12 км ясно +10.1 +5.6 74 +9 +9 1010.1 879.1
03 18.02 З 4 15 км 1/1 1200 м
[Sc]
+13.2 +5.2 58 +12 +12 1011.3 880.2 +10.1
06 18.02 З 5 15 км 5/5 1050 м
[Cu med, cong]
+17.4 +3.5 40 +17 +20 1012.4 881.5
09 18.02 З 5 15 км 4/1 1200 м
[Cu med, cong Ci sp]
+19.6 +0.8 28 +20 +25 1010.0 879.3
12 18.02 З 5 15 км 4/1 1200 м
[Cu hum Ci sp]
+20.6 -3.2 20 +20 +21 1008.5 877.5
15 18.02 З 5 15 км 1/1 1200 м
[Cu hum]
+17.1 -5.1 21 +17 +17 1009.2 878.0 +20.9
18 18.02 З 4 15 км 3/0
[Ci sp]
+15.7 -7.4 20 +15 +15 1008.8 878.2
21 18.02 штиль 0 15 км ясно +10.9 -4.3 34 +11 +11 1008.6 877.5
00 19.02 ЮЗ 5 15 км 6/0
[Cs]
+13.6 +4.7 55 +12 +12 1006.6 876.8
03 19.02 штиль 0 15 км 6/0
[Cs]
+12.3 +3.0 53 +12 +13 1008.9 877.7 +10.3
06 19.02 З 3 12 км 6/0
[Ac As Cs]
+16.6 -1.7 29 +16 +23 1010.7 879.8
09 19.02 З 4 12 км 6/3 1200 м
[Cu hum Ac As Cs]
+19.2 -6.6 17 +19 +24 1010.5 879.1
12 19.02 З 4 12 км 6/3 1200 м
[Cu med, cong Ac As]
+19.1 -3.2 22 +19 +20 1008.5 877.9
15 19.02 штиль 0 12 км 5/1 1200 м
[Cu med, cong Ac As]
+17.6 -0.9 28 +18 +18 1010.6 879.2 +20.1
18 19.02 З 3 10 км в посл. час ливневой дождь 10/3 1050 м
[Cb calv Ac As]
+14.9 +5.4 53 +14 +14 1011.7 880.7 0.1
21 19.02 З 4 8000 м слаб. дождь 10/4 900 м
[Cb calv As op]
+11.9 +6.1 68 +10 +10 1012.7 881.5
00 20.02 З 4 10 км {ливн. осадки, дождь} 6/1 1050 м
[Sc diur, vesp Ac As]
+11.6 +4.4 61 +10 +10 1010.2 879.2 1
03 20.02 штиль 0 12 км 8/3 900 м
[Sc Ac As]
+10.1 +6.9 81 +9 +10 1012.3 880.5 +10.0

 

Местоположение метеостанции Сараван (Иран): широта 27.33 долгота 62.33 высота над уровнем моря 1195 м.

В архиве по умолчанию представлена погода в Сараване за последнюю неделю. Архивные данные за месяц целиком и за предыдущие месяцы, начиная с января 2011 года, Вы можете получить, выбрав интересующий диапазон дат из раскрывающегося списка и нажав кнопку "Ввод!".


*Определитесь, кто Вы:
робот инопланетянин человек

Внимание! Время в таблицах - всемирное. Для получения местного времени необходимо прибавить поправку, которая равна 3.5 ч.

Смотрите также архив погоды в соседних городах и на ближайших метеорологических станциях:

Погода в Ираншехре (Иран) (162 км)
Погода в Нок-Кунди (Пакистан) (171 км)
Погода в Панджгуре (Пакистан) (180 км)
Погода в Гавадаре (Пакистан) (245 км)
Погода в Пасни (Пакистан) (256 км)
Погода в Дживани (Пакистан) (257 км)
Погода в Дал Бандин (Пакистан) (266 км)
Погода в Захедане (Иран) (277 км)
Погода в Аэропорту Конарак (Иран) (285 км)
Погода в Заболе (Иран) (422 км)

Пояснения к столбцам:

Ветер - указаны скорость ветра в м/с - средняя за 10 мин, порывы в срок и между сроками (в фигурных скобках) и направление, откуда дует ветер: С - северный, СВ - северо-восточный, В - восточный, ЮВ - юго-восточный, Ю - южный, ЮЗ - юго-западный, З - западный, СЗ - северо-западный.
Видимость - горизонтальная дальность видимости в метрах или километрах. При видимости от 1 до 10 км при отсутствии осадков обычно наблюдается дымка, при ухудшении видимости до 1 км и менее - туман. В сухую погоду видимость может ухудшаться дымом, пылью или мглою.
Явления - указаны атмосферные явления, наблюдавшиеся в срок или в последний час перед сроком; фигурными скобками обозначены явления, наблюдавшиеся между сроками (за 1-3 часа до срока); квадратными скобками обозначены град или гололедные отложения с указанием их диаметра в мм.
Облачность - указаны через наклонную черту общая и нижняя облачность в баллах и высота нижней границы облаков в метрах; квадратными скобками обозначены формы облаков: Ci - перистые, Cs - перисто-слоистые, Cc - перисто-кучевые, Ac - высококучевые, As - высокослоистые, Sc - слоисто-кучевые, Ns - слоисто-дождевые, Cu - кучевые, Cb - кучево-дождевые. Подробнее классификацию облаков см. в Атласе облаков (PDF).
T - Температура воздуха - температура, измеренная на высоте 2 м над землей.
Td - Температура точки росы - температура, при понижении до которой содержащийся в воздухе водяной пар достигнет насыщения.
f - Относительная влажность воздуха - влажноcть воздуха, измеренная на высоте 2 м над землей.
Te - Эффективная температура - температура, которую ощущает одетый по сезону человек в тени. Характеристика душности погоды. При расчете учитывается влияние влажности воздуха и скорости ветра на теплоощущения человека.
Tes - Эффективная температура на солнце - температура, которую ощущает человек, с поправкой на солнечный нагрев. Характеристика знойности погоды. Зависит от высоты солнца над горизонтом, облачности и скорости ветра. Ночью, в пасмурную погоду, а также при ветре 12 м/с и более поправка равна нулю.
P - Атмосферное давление - приведенное к уровню моря атмосферное давление.
Po - Атмосферное давление - измеренное на уровне метеостанции атмосферное давление.
Tmin - Минимальная температура - минимум температуры воздуха на высоте 2 м над землей.
Tmax - Максимальная температура - максимум температуры воздуха на высоте 2 м над землей.
R - Количество осадков - Количество выпавших осадков за период времени, мм. При наведении курсора мыши на число - период времени, за который выпало указанное количество осадков.
R24 - Количество осадков - Количество выпавших осадков за 24 часа, мм.
S - Снежный покров - Высота снежного покрова, см. При наведении курсора мыши на число - состояние снежного покрова и степень покрытия местности в баллах.